When you browse on this site, cookies collect data to enhance your experience and personalize the content and advertising you see.
Visit our Privacy Policy to learn more. By continuing to use the site, you agree to this use of cookies and data.
  • In Romania
  • List of Countries
  • For 7 days
  • Water Temperature
  • Satellite Maps
  • Weather Map
  • Weather Widgets
  • user-avatar
    Login

    Hourly Weather Crete

    Today, 25 May, Saturday

    Time Temperature Precipitation Wind Pressure Humidity
    00:00 +14°C° 0 mm 2 mps 707 mmHg 79%
    01:00 +14°C° 0 mm 2 mps 707 mmHg 80%
    02:00 +14°C° 0 mm 1 mps 707 mmHg 81%
    03:00 +13°C° 0 mm 1 mps 707 mmHg 81%
    04:00 +13°C° 0 mm 1 mps 707 mmHg 81%
    05:00 +13°C° 0 mm 1 mps 707 mmHg 82%
    06:00 +15°C° 0 mm 1 mps 708 mmHg 73%
    07:00 +18°C° 0 mm 1 mps 708 mmHg 65%
    08:00 +18°C° 0 mm 0 mps 709 mmHg 55%
    09:00 +21°C° 0 mm 1 mps 709 mmHg 52%
    10:00 +22°C° 0 mm 1 mps 709 mmHg 49%
    11:00 +23°C° 0 mm 2 mps 710 mmHg 45%
    12:00 +23°C° 0 mm 2 mps 710 mmHg 47%
    13:00 +23°C° 0 mm 2 mps 710 mmHg 49%
    14:00 +24°C° 0 mm 3 mps 710 mmHg 52%
    15:00 +22°C° 0 mm 3 mps 710 mmHg 54%
    16:00 +22°C° 0 mm 3 mps 710 mmHg 56%
    17:00 +21°C° 0 mm 3 mps 710 mmHg 58%
    18:00 +20°C° 0 mm 2 mps 710 mmHg 64%
    19:00 +19°C° 0 mm 2 mps 709 mmHg 69%
    20:00 +18°C° 0 mm 1 mps 709 mmHg 75%
    21:00 +18°C° 0 mm 1 mps 709 mmHg 77%
    22:00 +18°C° 0 mm 1 mps 709 mmHg 79%
    23:00 +15°C° 0 mm 0 mps 709 mmHg 80%

    Tomorrow, 26 May, Sunday

    Time Temperature Precipitation Wind Pressure Humidity
    00:00 +15°C° 0 mm 0 mps 709 mmHg 81%
    01:00 +15°C° 0 mm 0 mps 709 mmHg 82%
    02:00 +14°C° 0 mm 0 mps 709 mmHg 83%
    03:00 +14°C° 0 mm 0 mps 709 mmHg 83%
    04:00 +15°C° 0 mm 1 mps 709 mmHg 82%
    05:00 +15°C° 0 mm 1 mps 709 mmHg 82%
    06:00 +18°C° 0 mm 1 mps 709 mmHg 76%
    07:00 +19°C° 0 mm 1 mps 709 mmHg 70%
    08:00 +21°C° 0 mm 1 mps 710 mmHg 63%
    09:00 +22°C° 0 mm 1 mps 710 mmHg 59%
    10:00 +23°C° 0 mm 2 mps 710 mmHg 54%
    11:00 +24°C° 0 mm 2 mps 711 mmHg 50%
    12:00 +24°C° 0 mm 2 mps 710 mmHg 50%
    13:00 +24°C° 0 mm 3 mps 710 mmHg 50%
    14:00 +25°C° 0 mm 3 mps 710 mmHg 50%
    15:00 +24°C° 0 mm 2 mps 710 mmHg 51%
    16:00 +24°C° 0 mm 2 mps 710 mmHg 52%
    17:00 +24°C° 0 mm 2 mps 709 mmHg 53%
    18:00 +22°C° 0 mm 1 mps 709 mmHg 57%
    19:00 +21°C° 0 mm 1 mps 709 mmHg 62%
    20:00 +19°C° 0 mm 1 mps 709 mmHg 66%
    21:00 +19°C° 0 mm 1 mps 709 mmHg 67%
    22:00 +19°C° 0 mm 1 mps 709 mmHg 68%
    23:00 +19°C° 0 mm 1 mps 709 mmHg 69%

    Day after tomorrow, 27 May, Monday

    Time Temperature Precipitation Wind Pressure Humidity
    00:00 +19°C° 0 mm 1 mps 708 mmHg 70%
    01:00 +18°C° 0 mm 1 mps 708 mmHg 71%
    02:00 +18°C° 0 mm 1 mps 708 mmHg 72%
    03:00 +18°C° 0 mm 1 mps 707 mmHg 73%
    04:00 +18°C° 0 mm 1 mps 707 mmHg 73%
    05:00 +18°C° 0 mm 1 mps 707 mmHg 74%
    06:00 +19°C° 0 mm 1 mps 708 mmHg 65%
    07:00 +21°C° 0 mm 1 mps 708 mmHg 57%
    08:00 +23°C° 0 mm 1 mps 708 mmHg 48%
    09:00 +24°C° 0 mm 2 mps 709 mmHg 43%
    10:00 +25°C° 0 mm 2 mps 709 mmHg 38%
    11:00 +27°C° 0 mm 3 mps 709 mmHg 33%
    12:00 +27°C° 0 mm 3 mps 709 mmHg 33%
    13:00 +27°C° 0 mm 3 mps 709 mmHg 33%
    14:00 +27°C° 0 mm 3 mps 709 mmHg 32%
    15:00 +27°C° 0 mm 3 mps 709 mmHg 32%
    16:00 +27°C° 0 mm 3 mps 708 mmHg 32%
    17:00 +26°C° 0 mm 2 mps 708 mmHg 32%
    18:00 +25°C° 0 mm 2 mps 708 mmHg 36%
    19:00 +23°C° 0 mm 2 mps 708 mmHg 40%
    20:00 +20°C° 0 mm 2 mps 707 mmHg 43%
    21:00 +20°C° 0 mm 2 mps 707 mmHg 37%
    22:00 +20°C° 0 mm 2 mps 707 mmHg 31%
    23:00 +21°C° 0 mm 3 mps 708 mmHg 25%

    28 May, Tuesday

    Time Temperature Precipitation Wind Pressure Humidity
    00:00 +20°C° 0 mm 3 mps 707 mmHg 28%
    01:00 +20°C° 0 mm 3 mps 707 mmHg 30%
    02:00 +20°C° 0 mm 2 mps 707 mmHg 32%
    03:00 +19°C° 0 mm 2 mps 707 mmHg 34%
    04:00 +19°C° 0 mm 2 mps 707 mmHg 37%
    05:00 +19°C° 0 mm 2 mps 706 mmHg 39%
    06:00 +20°C° 0 mm 2 mps 707 mmHg 37%
    07:00 +23°C° 0 mm 2 mps 708 mmHg 34%
    08:00 +24°C° 0 mm 1 mps 708 mmHg 32%
    09:00 +26°C° 0 mm 2 mps 708 mmHg 32%
    10:00 +27°C° 0 mm 2 mps 709 mmHg 31%
    11:00 +28°C° 0 mm 3 mps 709 mmHg 31%
    12:00 +28°C° 0.1 mm 3 mps 709 mmHg 34%
    13:00 +27°C° 0.1 mm 2 mps 709 mmHg 37%
    14:00 +27°C° 0.1 mm 2 mps 709 mmHg 40%
    15:00 +26°C° 0 mm 2 mps 709 mmHg 46%
    16:00 +25°C° 0 mm 2 mps 709 mmHg 52%
    17:00 +25°C° 0 mm 2 mps 708 mmHg 57%
    18:00 +23°C° 0 mm 2 mps 708 mmHg 63%
    19:00 +21°C° 0 mm 2 mps 708 mmHg 69%
    20:00 +21°C° 0 mm 1 mps 708 mmHg 74%
    21:00 +20°C° 0 mm 1 mps 709 mmHg 75%
    22:00 +20°C° 0 mm 1 mps 709 mmHg 76%
    23:00 +20°C° 0 mm 1 mps 709 mmHg 77%

    29 May, Wednesday

    Time Temperature Precipitation Wind Pressure Humidity
    00:00 +19°C° 0 mm 1 mps 708 mmHg 77%
    01:00 +19°C° 0 mm 1 mps 708 mmHg 76%
    02:00 +19°C° 0 mm 1 mps 708 mmHg 76%
    03:00 +18°C° 0 mm 1 mps 708 mmHg 74%
    04:00 +18°C° 0 mm 1 mps 708 mmHg 73%
    05:00 +18°C° 0 mm 1 mps 708 mmHg 71%
    06:00 +20°C° 0 mm 1 mps 708 mmHg 64%
    07:00 +20°C° 0 mm 2 mps 709 mmHg 56%
    08:00 +23°C° 0 mm 2 mps 709 mmHg 48%
    09:00 +25°C° 0 mm 2 mps 710 mmHg 44%
    10:00 +26°C° 0 mm 2 mps 710 mmHg 39%
    11:00 +28°C° 0 mm 3 mps 710 mmHg 34%
    12:00 +28°C° 0 mm 3 mps 710 mmHg 37%
    13:00 +27°C° 0 mm 3 mps 710 mmHg 39%
    14:00 +27°C° 0 mm 3 mps 710 mmHg 42%
    15:00 +27°C° 0 mm 3 mps 709 mmHg 45%
    16:00 +26°C° 0 mm 3 mps 709 mmHg 49%
    17:00 +25°C° 0 mm 2 mps 709 mmHg 52%
    18:00 +24°C° 0 mm 2 mps 709 mmHg 59%
    19:00 +22°C° 0 mm 1 mps 709 mmHg 65%
    20:00 +21°C° 0 mm 1 mps 709 mmHg 71%
    21:00 +21°C° 0 mm 1 mps 709 mmHg 73%
    22:00 +20°C° 0 mm 1 mps 709 mmHg 74%
    23:00 +20°C° 0 mm 1 mps 709 mmHg 76%

    30 May, Thursday

    Time Temperature Precipitation Wind Pressure Humidity
    00:00 +20°C° 0 mm 1 mps 709 mmHg 75%
    01:00 +20°C° 0 mm 1 mps 708 mmHg 74%
    02:00 +19°C° 0 mm 1 mps 708 mmHg 73%
    03:00 +19°C° 0 mm 1 mps 708 mmHg 70%
    04:00 +19°C° 0 mm 1 mps 708 mmHg 66%
    05:00 +19°C° 0 mm 1 mps 708 mmHg 63%
    06:00 +21°C° 0 mm 1 mps 708 mmHg 56%
    07:00 +22°C° 0 mm 1 mps 709 mmHg 49%
    08:00 +24°C° 0 mm 1 mps 709 mmHg 42%
    09:00 +25°C° 0 mm 2 mps 709 mmHg 40%
    10:00 +26°C° 0 mm 2 mps 710 mmHg 38%
    11:00 +27°C° 0 mm 3 mps 710 mmHg 35%
    12:00 +27°C° 0 mm 3 mps 710 mmHg 36%
    13:00 +27°C° 0 mm 3 mps 710 mmHg 37%
    14:00 +27°C° 0 mm 3 mps 710 mmHg 39%
    15:00 +27°C° 0 mm 3 mps 710 mmHg 40%
    16:00 +26°C° 0 mm 3 mps 709 mmHg 42%
    17:00 +26°C° 0 mm 3 mps 709 mmHg 43%
    18:00 +24°C° 0 mm 3 mps 709 mmHg 49%
    19:00 +23°C° 0 mm 2 mps 709 mmHg 55%
    20:00 +20°C° 0 mm 2 mps 709 mmHg 60%
    21:00 +20°C° 0 mm 2 mps 709 mmHg 60%
    22:00 +19°C° 0 mm 2 mps 709 mmHg 60%
    23:00 +19°C° 0 mm 2 mps 709 mmHg 60%
    Show more